MDT,Max TemperatureF,Mean TemperatureF,Min TemperatureF,Max Dew PointF,MeanDew PointF,Min DewpointF,Max Humidity, Mean Humidity, Min Humidity, Max Sea Level PressureIn, Mean Sea Level PressureIn, Min Sea Level PressureIn, Max VisibilityMiles, Mean VisibilityMiles, Min VisibilityMiles, Max Wind SpeedMPH, Mean Wind SpeedMPH, Max Gust SpeedMPH,PrecipitationIn, CloudCover, Events, WindDirDegrees
2013-10-1,45,40,33,30,26,20,84,64,38,29.99,29.83,29.68,,,,13,6,24,0.00,,,240
2013-10-2,45,36,26,32,23,16,94,64,32,30.22,30.12,30.01,,,,9,4,,0.00,,,231
2013-10-3,43,36,27,32,27,22,99,75,53,30.49,30.36,30.22,,,,7,3,,0.04,,,117
2013-10-4,51,37,23,26,22,16,100,62,26,30.55,30.45,30.31,,,,10,4,20,0.00,,,239
2013-10-5,49,45,41,35,30,21,63,56,44,30.31,30.22,30.17,,,,9,7,21,0.00,,,243
2013-10-6,57,50,43,40,38,35,80,66,48,30.17,30.05,29.88,,,,9,7,21,0.00,,,232
2013-10-7,53,45,37,37,31,24,89,63,34,29.87,29.69,29.63,,,,16,8,29,0.00,,,238
2013-10-8,47,41,35,36,32,29,97,75,49,30.07,29.81,29.65,,,,9,5,,0.05,,,244
2013-10-9,47,39,31,35,30,23,100,76,38,30.13,30.00,29.83,,,,12,4,23,0.00,,,250
2013-10-10,48,40,30,35,30,24,99,71,45,29.96,29.81,29.73,,,,7,4,,0.00,,,243
2013-10-11,43,34,25,32,24,18,99,74,36,30.16,30.09,29.98,,,,8,3,,0.00,,,247
2013-10-12,41,32,24,26,23,17,96,71,37,30.24,30.18,30.13,,,,5,1,,0.00,,,111
2013-10-13,42,33,23,28,24,17,96,73,37,30.44,30.32,30.24,,,,5,1,,0.00,,,194
2013-10-14,50,33,16,21,19,16,96,69,27,30.58,30.50,30.43,,,,7,2,,0.00,,,241
2013-10-15,55,39,23,29,24,21,89,61,32,30.49,30.31,30.13,,,,13,4,23,0.00,,,236
2013-10-16,39,33,27,36,33,27,100,93,77,30.27,30.21,30.12,,,,6,3,,0.20,,,38
2013-10-17,48,37,25,31,28,22,100,83,35,30.37,30.31,30.26,,,,7,2,,0.00,,,246
2013-10-18,53,39,25,27,25,24,97,66,32,30.33,30.22,30.08,,,,13,4,21,0.00,,,226
2013-10-19,56,44,31,34,29,26,86,60,32,30.14,30.04,29.94,,,,14,9,22,0.00,,,231
2013-10-20,57,40,24,32,28,24,96,71,35,30.20,30.15,30.08,,,,10,2,,0.00,,,225
2013-10-21,59,46,34,34,31,30,85,62,33,30.22,30.16,30.09,,,,13,6,22,0.00,,,236
2013-10-22,60,46,33,36,31,26,88,62,27,30.25,30.18,30.12,,,,12,7,18,0.00,,,245
2013-10-23,54,41,28,39,33,27,99,75,43,30.30,30.24,30.17,,,,7,3,,0.00,,,113
2013-10-24,61,44,27,36,31,28,100,72,33,30.30,30.20,30.05,,,,12,4,,0.00,,,236
2013-10-25,58,42,25,32,29,24,97,70,32,30.37,30.28,30.17,,,,8,4,,0.00,,,240
2013-10-26,57,42,28,31,27,19,92,61,24,30.34,30.22,30.02,,,,10,5,18,0.00,,,235
2013-10-27,42,32,21,36,28,18,99,87,61,30.55,30.22,29.93,,,,10,6,17,0.33,,,37
2013-10-28,28,22,16,18,15,11,97,77,51,30.56,30.45,30.28,,,,8,6,,0.00,,,50
2013-10-29,44,30,15,29,19,14,94,77,36,30.27,30.07,29.91,,,,8,4,,0.00,,,248
2013-10-30,37,32,27,24,22,21,78,68,56,29.98,29.93,29.88,,,,10,5,18,0.00,,,245
2013-10-31,41,36,31,28,25,20,78,63,49,30.05,29.89,29.81,,,,10,8,23,0.00,,,245